Location: Wells
(51.2093°N, 2.6446°W)
Time: 05:30:06
(UTC+01:00)

ITUPSAT 1 - Pass Details

Date: 18 March 2026
Orbit: 686 x 698 km, 98.4° (Epoch: 15 April)

Event Time Altitude Azimuth Distance (km) Brightness Sun altitude
Rises 01:28:42 0° 3° (N) 3,076 ? -37.7°
Reaches altitude 10° 01:31:40 10° 344° (NNW) 2,152 ? -37.5°
Enters shadow 01:32:11 12° 338° (NNW) 2,028 ? -37.5°
